Change the Weather History Date:

Sunday, August 24, 2014

  Actual Average Record
Temperature  
Mean Temperature 73 °F 71 °F  
Max Temperature 83 °F 82 °F 96 °F (1968)
Min Temperature 63 °F 59 °F 43 °F (1971)
Degree Days  
Heating Degree Days 0 0  
Month to date heating degree days 13 0  
Since 1 June heating degree days 42 38  
Since 1 July heating degree days 32 3  
Cooling Degree Days 8 6  
Month to date cooling degree days 114 164  
Year to date cooling degree days 509 584  
Since 1 June cooling degree days 443 541  
Growing Degree Days 23 (Base 50)    
Moisture  
Dew Point 65 °F    
Average Humidity 83    
Maximum Humidity 100    
Minimum Humidity 65    
Precipitation  
Precipitation 0.00 in 0.12 in 2.18 in (1998)
Month to date precipitation 6.52 2.66  
Year to date precipitation 31.45 26.02  
Sea Level Pressure  
Sea Level Pressure 30.06 in    
Wind  
Wind Speed 5 mph (East)    
Max Wind Speed 10 mph    
Max Gust Speed 15 mph    
Visibility 8 miles    
Events      
T = Trace of Precipitation, MM = Missing Value Source: NWS Daily Summary

Daily Weather History Graph

Daily Weather History Graph

Search for Another Location

Airport or City:

Trip Planner

Search our weather history database for the weather conditions in past years. The results will help you decide how hot, cold, wet, or windy it might be!

Date:

Astronomy

Aug. 24, 2014 Rise Set
Actual Time 6:45 AM EDT 8:10 PM EDT
Civil Twilight 6:16 AM EDT 8:38 PM EDT
Nautical Twilight 5:42 AM EDT 9:12 PM EDT
Astronomical Twilight 5:06 AM EDT 9:48 PM EDT
Moon 5:54 AM EDT (8/24) 7:27 PM EDT (8/24)
Length of Visible Light 14h 21m
Length of Day
13h 24m
Waning Crescent, 1% of the Moon is Illuminated
Aug 24
Waning Crescent
Aug 25
New
Sep 2
First Quarter
Sep 8
Full
Sep 15
Last Quarter

Hourly Weather History & Observations

Time (EDT) Temp. Heat Index Dew Point Humidity Pressure Visibility Wind Dir Wind Speed Gust Speed Precip Events Conditions
12:53 AM 66.0 °F - 64.9 °F 96% 30.03 in 6.0 mi Calm Calm - N/A   Clear
1:53 AM 66.9 °F - 64.9 °F 93% 30.03 in 9.0 mi ENE 3.5 mph - N/A   Clear
2:53 AM 66.0 °F - 64.9 °F 96% 30.04 in 8.0 mi East 3.5 mph - N/A   Clear
3:53 AM 64.9 °F - 64.0 °F 97% 30.04 in 5.0 mi Calm Calm - N/A   Partly Cloudy
4:20 AM 64.0 °F - 64.0 °F 100% 30.05 in 1.5 mi Calm Calm - N/A   Partly Cloudy
4:23 AM 64.0 °F - 64.0 °F 100% 30.05 in 0.8 mi ESE 3.5 mph - N/A   Mist
4:31 AM 64.0 °F - 63.0 °F 96% 30.05 in 1.2 mi East 3.5 mph - N/A   Partly Cloudy
4:39 AM 64.0 °F - 63.0 °F 96% 30.05 in 7.0 mi East 3.5 mph - N/A   Clear
4:53 AM 64.0 °F - 64.0 °F 100% 30.03 in 7.0 mi East 4.6 mph - N/A   Clear
5:53 AM 64.9 °F - 63.0 °F 93% 30.04 in 8.0 mi Variable 3.5 mph - N/A   Clear
6:00 AM 64.9 °F - 63.0 °F 93% 30.06 in 9.0 mi Calm Calm - N/A   Partly Cloudy
6:53 AM 64.0 °F - 63.0 °F 96% 30.06 in 9.0 mi ESE 4.6 mph - N/A   Clear
7:53 AM 66.0 °F - 64.0 °F 93% 30.07 in 10.0 mi East 5.8 mph - N/A   Clear
8:53 AM 69.1 °F - 64.9 °F 87% 30.08 in 10.0 mi Variable 4.6 mph - N/A   Clear
9:53 AM 72.0 °F - 66.0 °F 81% 30.09 in 10.0 mi Variable 5.8 mph - N/A   Clear
10:39 AM 73.9 °F - 66.9 °F 79% 30.11 in 10.0 mi SE 8.1 mph - N/A   Mostly Cloudy
10:53 AM 75.0 °F - 66.0 °F 73% 30.10 in 10.0 mi SSE 5.8 mph - N/A   Scattered Clouds
11:48 AM 77.0 °F - 66.2 °F 69% 30.11 in 10.0 mi ENE 6.9 mph - N/A   Scattered Clouds
11:53 AM 77.0 °F - 66.9 °F 71% 30.09 in 10.0 mi ENE 5.8 mph - N/A   Partly Cloudy
12:53 PM 78.1 °F - 66.9 °F 68% 30.09 in 10.0 mi North - - N/A   Partly Cloudy
1:53 PM 78.1 °F - 68.0 °F 71% 30.09 in 10.0 mi East 3.5 mph - N/A   Mostly Cloudy
2:53 PM 82.0 °F 85.5 °F 69.1 °F 65% 30.07 in 10.0 mi Variable 5.8 mph - N/A   Mostly Cloudy
3:53 PM 81.0 °F 84.1 °F 69.1 °F 67% 30.05 in 10.0 mi SE 6.9 mph - N/A   Scattered Clouds
4:53 PM 81.0 °F 83.8 °F 68.0 °F 65% 30.04 in 10.0 mi East 8.1 mph - N/A   Clear
5:53 PM 81.0 °F 84.1 °F 69.1 °F 67% 30.04 in 10.0 mi ESE 9.2 mph - N/A   Partly Cloudy
6:53 PM 77.0 °F - 66.9 °F 71% 30.05 in 10.0 mi East 5.8 mph - N/A   Scattered Clouds
7:53 PM 75.0 °F - 66.9 °F 76% 30.06 in 10.0 mi ENE 3.5 mph - N/A   Clear
8:53 PM 70.0 °F - 66.9 °F 90% 30.06 in 10.0 mi Calm Calm - N/A   Clear
10:53 PM 69.1 °F - 64.0 °F 84% 30.09 in 10.0 mi ESE 5.8 mph - N/A   Clear
11:53 PM 66.9 °F - 63.0 °F 87% 30.11 in 10.0 mi SE 4.6 mph - N/A   Clear